Le Mars, IA

11:44 PM CST on December 17, 2017 (GMT -0600)
Le Mars Municipal

Weather History for KLRJ - April, 2012

Change the Weather History Date:

Thursday, April 19, 2012

  Actual Average Record
Temperature  
Mean Temperature 46 °F -  
Max Temperature 50 °F 63 °F 88 °F (1985)
Min Temperature 41 °F 41 °F 18 °F (1988)
Degree Days  
Heating Degree Days 20    
Moisture  
Dew Point 40 °F    
Average Humidity 84    
Maximum Humidity 93    
Minimum Humidity 76    
Precipitation  
Precipitation 0.35 in - - ()
Sea Level Pressure  
Sea Level Pressure 29.89 in    
Wind  
Wind Speed 13 mph (NE)    
Max Wind Speed 21 mph    
Max Gust Speed 33 mph    
Visibility 10 miles    
Events Rain    
Averages and records for this station are not official NWS values.
T = Trace of Precipitation, MM = Missing Value Source: NWS Daily Summary

Daily Weather History Graph

Daily Weather History Graph

Search for Another Location

Airport or City:

Trip Planner

Search our weather history database for the weather conditions in past years. The results will help you decide how hot, cold, wet, or windy it might be!

Date:

Astronomy

Apr. 19, 2012 Rise Set
Actual Time 6:36 AM CDT 8:12 PM CDT
Civil Twilight 6:06 AM CDT 8:42 PM CDT
Nautical Twilight 5:30 AM CDT 9:18 PM CDT
Astronomical Twilight 4:51 AM CDT 9:56 PM CDT
Moon 5:31 AM CDT (4/19) 7:00 PM CDT (4/19)
Length of Visible Light 14h 35m
Length of Day
13h 36m
Waning Crescent, 2% of the Moon is Illuminated
Apr 19
Waning Crescent
Apr 21
New
Apr 29
First Quarter
May 5
Full
May 12
Last Quarter

Hourly Weather History & Observations

Time (CDT) Temp. Windchill Dew Point Humidity Pressure Visibility Wind Dir Wind Speed Gust Speed Precip Events Conditions
12:15 AM 50.0 °F - 42.8 °F 76% 29.94 in 10.0 mi NE 9.2 mph - N/A   Clear
12:35 AM 48.2 °F - 42.8 °F 82% 29.94 in 10.0 mi ENE 11.5 mph - N/A   Clear
12:55 AM 48.2 °F - 42.8 °F 82% 29.93 in 10.0 mi NE 10.4 mph - N/A   Clear
1:15 AM 48.2 °F - 42.8 °F 82% 29.93 in 10.0 mi ENE 10.4 mph - N/A   Scattered Clouds
1:35 AM 48.2 °F - 42.8 °F 82% 29.93 in 10.0 mi NE 10.4 mph 16.1 mph N/A   Scattered Clouds
1:55 AM 48.2 °F - 42.8 °F 82% 29.93 in 10.0 mi NE 11.5 mph - N/A   Scattered Clouds
2:15 AM 48.2 °F - 41.0 °F 76% 29.94 in 10.0 mi ENE 11.5 mph 17.3 mph N/A   Scattered Clouds
2:35 AM 48.2 °F - 41.0 °F 76% 29.92 in 10.0 mi ENE 12.7 mph - N/A   Scattered Clouds
2:55 AM 48.2 °F - 41.0 °F 76% 29.92 in 10.0 mi ENE 11.5 mph 18.4 mph N/A   Mostly Cloudy
3:15 AM 48.2 °F - 41.0 °F 76% 29.91 in 10.0 mi ENE 12.7 mph 20.7 mph N/A   Mostly Cloudy
3:35 AM 48.2 °F - 41.0 °F 76% 29.91 in 10.0 mi East 10.4 mph 19.6 mph N/A   Mostly Cloudy
3:55 AM 48.2 °F - 41.0 °F 76% 29.89 in 10.0 mi East 11.5 mph 17.3 mph N/A   Mostly Cloudy
4:15 AM 48.2 °F - 41.0 °F 76% 29.88 in 10.0 mi East 15.0 mph 20.7 mph N/A   Scattered Clouds
4:35 AM 48.2 °F - 41.0 °F 76% 29.89 in 10.0 mi East 11.5 mph - N/A   Mostly Cloudy
4:55 AM 48.2 °F - 41.0 °F 76% 29.88 in 10.0 mi ENE 9.2 mph - N/A   Mostly Cloudy
5:15 AM 48.2 °F - 41.0 °F 76% 29.89 in 10.0 mi ENE 11.5 mph 18.4 mph N/A Rain Light Rain
5:35 AM 46.4 °F 39.5 °F 42.8 °F 87% 29.86 in 10.0 mi ENE 17.3 mph 21.9 mph 0.01 in Rain Rain
5:55 AM 46.4 °F 40.7 °F 42.8 °F 87% 29.87 in 10.0 mi ENE 12.7 mph 17.3 mph 0.01 in   Mostly Cloudy
6:35 AM 46.4 °F 43.5 °F 42.8 °F 87% 29.88 in 5.0 mi NNE 5.8 mph - 0.04 in Rain Heavy Rain
6:55 AM 46.4 °F 40.4 °F 42.8 °F 87% 29.87 in 10.0 mi ENE 13.8 mph 17.3 mph 0.05 in Rain Light Rain
7:15 AM 46.4 °F 40.7 °F 42.8 °F 87% 29.88 in 10.0 mi ENE 12.7 mph 21.9 mph 0.01 in   Light Drizzle
7:35 AM 44.6 °F 36.9 °F 42.8 °F 93% 29.86 in 10.0 mi ENE 18.4 mph 23.0 mph 0.01 in   Overcast
7:55 AM 44.6 °F 37.4 °F 42.8 °F 93% 29.87 in 10.0 mi ENE 16.1 mph 19.6 mph 0.01 in   Light Drizzle
8:35 AM 44.6 °F 37.2 °F 42.8 °F 93% 29.84 in 10.0 mi East 17.3 mph 25.3 mph N/A   Overcast
9:15 AM 44.6 °F 36.6 °F 41.0 °F 87% 29.82 in 10.0 mi ENE 19.6 mph 28.8 mph N/A   Overcast
9:35 AM 44.6 °F 36.4 °F 39.2 °F 81% 29.81 in 10.0 mi East 20.7 mph 33.4 mph N/A   Overcast
9:55 AM 44.6 °F 37.2 °F 39.2 °F 81% 29.82 in 10.0 mi East 17.3 mph 23.0 mph N/A   Overcast
10:15 AM 44.6 °F 38.4 °F 39.2 °F 81% 29.84 in 10.0 mi East 12.7 mph 20.7 mph N/A Rain Rain
10:35 AM 44.6 °F 38.1 °F 41.0 °F 87% 29.83 in 10.0 mi ENE 13.8 mph 25.3 mph N/A Rain Light Rain
10:55 AM 44.6 °F 37.2 °F 41.0 °F 87% 29.84 in 10.0 mi ENE 17.3 mph 23.0 mph N/A   Light Drizzle
11:15 AM 44.6 °F 37.8 °F 41.0 °F 87% 29.83 in 10.0 mi ENE 15.0 mph 20.7 mph 0.02 in Rain Light Rain
11:35 AM 44.6 °F 37.4 °F 41.0 °F 87% 29.85 in 10.0 mi NE 16.1 mph 28.8 mph 0.02 in Rain Light Rain
11:55 AM 42.8 °F 34.5 °F 39.2 °F 87% 29.85 in 10.0 mi ENE 18.4 mph 24.2 mph 0.05 in Rain Light Rain
12:15 PM 42.8 °F 34.5 °F 39.2 °F 87% 29.82 in 10.0 mi ENE 18.4 mph 29.9 mph 0.03 in Rain Light Rain
12:35 PM 42.8 °F 34.8 °F 39.2 °F 87% 29.84 in 10.0 mi NE 17.3 mph 26.5 mph 0.03 in   Light Drizzle
12:55 PM 42.8 °F 34.0 °F 37.4 °F 81% 29.83 in 10.0 mi ENE 20.7 mph 29.9 mph 0.03 in   Overcast
1:15 PM 42.8 °F 34.5 °F 37.4 °F 81% 29.83 in 10.0 mi ENE 18.4 mph 29.9 mph N/A   Light Drizzle
1:35 PM 42.8 °F 34.3 °F 37.4 °F 81% 29.84 in 10.0 mi ENE 19.6 mph 26.5 mph 0.02 in Rain Light Rain
1:55 PM 41.0 °F 31.6 °F 37.4 °F 87% 29.81 in 7.0 mi ENE 20.7 mph 28.8 mph 0.06 in Rain Light Rain
2:15 PM 41.0 °F 31.6 °F 39.2 °F 93% 29.83 in 10.0 mi NE 20.7 mph 27.6 mph 0.01 in Rain Light Rain
2:35 PM 41.0 °F 33.5 °F 39.2 °F 93% 29.85 in 10.0 mi NE 13.8 mph 24.2 mph 0.03 in Rain Rain
2:55 PM 41.0 °F 32.8 °F 39.2 °F 93% 29.84 in 10.0 mi NE 16.1 mph 20.7 mph 0.07 in Rain Light Rain
3:15 PM 41.0 °F 32.8 °F 39.2 °F 93% 29.85 in 10.0 mi NE 16.1 mph 21.9 mph 0.02 in Rain Light Rain
3:35 PM 41.0 °F 33.5 °F 39.2 °F 93% 29.86 in 10.0 mi NE 13.8 mph 19.6 mph 0.04 in Rain Light Rain
3:55 PM 42.8 °F 35.8 °F 39.2 °F 87% 29.85 in 7.0 mi NE 13.8 mph 17.3 mph 0.06 in Rain Rain
4:15 PM 42.8 °F 34.8 °F 41.0 °F 93% 29.84 in 10.0 mi NE 17.3 mph 23.0 mph 0.01 in Rain Light Rain
4:35 PM 44.6 °F 37.8 °F 41.0 °F 87% 29.84 in 10.0 mi NE 15.0 mph 24.2 mph 0.01 in Rain Light Rain
4:55 PM 44.6 °F 37.4 °F 39.2 °F 81% 29.85 in 10.0 mi NE 16.1 mph 24.2 mph 0.01 in Rain Light Rain
5:15 PM 44.6 °F 38.1 °F 41.0 °F 87% 29.85 in 10.0 mi NE 13.8 mph 23.0 mph N/A   Overcast
5:35 PM 44.6 °F 38.8 °F 39.2 °F 81% 29.87 in 10.0 mi NNE 11.5 mph 20.7 mph N/A   Overcast
6:15 PM 42.8 °F 36.2 °F 39.2 °F 87% 29.88 in 10.0 mi NNE 12.7 mph 24.2 mph N/A   Overcast
6:35 PM 42.8 °F 35.4 °F 37.4 °F 81% 29.89 in 10.0 mi NNE 15.0 mph 23.0 mph N/A   Overcast
6:55 PM 42.8 °F 35.8 °F 37.4 °F 81% 29.90 in 10.0 mi NNE 13.8 mph 19.6 mph N/A   Overcast
7:15 PM 42.8 °F 35.8 °F 37.4 °F 81% 29.91 in 10.0 mi NNE 13.8 mph 21.9 mph N/A   Overcast
7:35 PM 42.8 °F 37.5 °F 37.4 °F 81% 29.92 in 10.0 mi NNE 9.2 mph 18.4 mph N/A   Overcast
7:55 PM 42.8 °F 37.0 °F 37.4 °F 81% 29.93 in 10.0 mi NNE 10.4 mph 18.4 mph N/A   Overcast
8:15 PM 42.8 °F 37.5 °F 37.4 °F 81% 29.94 in 10.0 mi NNE 9.2 mph 17.3 mph N/A   Overcast
8:35 PM 42.8 °F 36.6 °F 37.4 °F 81% 29.94 in 10.0 mi NE 11.5 mph 16.1 mph N/A   Overcast
8:55 PM 42.8 °F 38.0 °F 37.4 °F 81% 29.95 in 10.0 mi NNE 8.1 mph - N/A   Overcast
9:15 PM 41.0 °F 34.3 °F 37.4 °F 87% 29.97 in 10.0 mi North 11.5 mph 19.6 mph N/A   Overcast
9:35 PM 41.0 °F 34.7 °F 37.4 °F 87% 29.98 in 10.0 mi NNE 10.4 mph 17.3 mph N/A   Overcast
9:55 PM 41.0 °F 34.7 °F 35.6 °F 81% 29.98 in 10.0 mi NE 10.4 mph - N/A   Overcast
10:15 PM 41.0 °F 36.4 °F 37.4 °F 87% 29.98 in 10.0 mi NNE 6.9 mph - N/A   Overcast
10:35 PM 41.0 °F 37.1 °F 37.4 °F 87% 29.98 in 10.0 mi NNE 5.8 mph - N/A   Overcast
10:55 PM 41.0 °F 37.1 °F 37.4 °F 87% 29.98 in 10.0 mi NNE 5.8 mph - N/A   Overcast
11:15 PM 41.0 °F 36.4 °F 37.4 °F 87% 29.98 in 10.0 mi North 6.9 mph - N/A   Overcast
11:35 PM 41.0 °F 36.4 °F 37.4 °F 87% 29.99 in 10.0 mi North 6.9 mph - N/A   Overcast
11:55 PM 41.0 °F 35.8 °F 35.6 °F 81% 29.99 in 10.0 mi North 8.1 mph - N/A   Overcast